Weather History for Doha, Qatar

Change the Weather History Date:

Tuesday, August 10, 2010

  Actual Average Record
Temperature  
Mean Temperature 98 °F -  
Max Temperature 107 °F 104 °F 113 °F (1999)
Min Temperature 89 °F 83 °F 37 °F (1996)
Cooling Degree Days 33    
Growing Degree Days 48 (Base 50)    
Moisture  
Dew Point 82 °F    
Average Humidity 68    
Maximum Humidity 94    
Minimum Humidity 28    
Precipitation  
Precipitation 0.00 in 0.00 in - ()
Sea Level Pressure  
Sea Level Pressure 29.49 in    
Wind  
Wind Speed 5 mph ()    
Max Wind Speed 13 mph    
Max Gust Speed -    
Visibility 4.1 miles    
Events      
Averages and records for this station are not official NWS values.
T = Trace of Precipitation, MM = Missing Value Source: Averaged Metar Reports

Daily Weather History Graph

Daily Weather History Graph

Search for Another Location

Airport:

Trip Planner

Search our weather history database for the weather conditions in past years. The results will help you decide how hot, cold, wet, or windy it might be!

Date:

Astronomy

Aug. 10, 2010 Rise Set
Actual Time 5:04 AM AST 6:12 PM AST
Civil Twilight 4:40 AM AST 6:37 PM AST
Nautical Twilight 4:12 AM AST 7:05 PM AST
Astronomical Twilight 3:42 AM AST 7:35 PM AST
Moon 5:08 AM AST (8/10) 6:20 PM AST (8/10)
Length of Visible Light 13h 56m
Length of Day
13h 08m
New Moon, 0% of the Moon is Illuminated
Aug 10
New Moon
Aug 16
First Quarter
Aug 24
Full
Sep 1
Last Quarter
Sep 8
New

Hourly Weather History & Observations

Time (AST) Temp. Heat Index Dew Point Humidity Pressure Visibility Wind Dir Wind Speed Gust Speed Precip Events Conditions
12:00 AM 91.4 °F 122.4 °F 86.0 °F 84% 29.44 in 3.7 mi Variable 2.3 mph - N/A   Unknown
12:30 AM 91.4 °F 122.4 °F 86.0 °F 84% 29.44 in 3.7 mi Calm Calm - N/A   Unknown
1:00 AM 91.4 °F 114.3 °F 82.4 °F 75% 29.44 in 4.3 mi Calm Calm - N/A   Unknown
1:30 AM 89.6 °F 119.2 °F 86.0 °F 89% 29.44 in 3.1 mi Variable 2.3 mph - N/A   Haze
2:00 AM 91.4 °F 127.3 °F 87.8 °F 89% 29.44 in 3.1 mi NNE 4.6 mph - N/A   Haze
2:30 AM 91.4 °F 127.3 °F 87.8 °F 89% 29.44 in 3.1 mi NNE 5.8 mph - N/A   Haze
3:00 AM 90 °F - 87 °F 89% 29.47 in 3 mi NNE 3.5 mph - -   Haze
3:00 AM 89.6 °F 123.7 °F 87.8 °F 94% 29.44 in 3.1 mi NNE 3.5 mph - N/A   Haze
3:30 AM 89.6 °F 119.2 °F 86.0 °F 89% 29.44 in 2.8 mi NE 4.6 mph - N/A   Partly Cloudy
4:00 AM 89.6 °F 119.2 °F 86.0 °F 89% 29.47 in 2.8 mi NE 4.6 mph - N/A   Partly Cloudy
4:30 AM 89.6 °F 119.2 °F 86.0 °F 89% 29.47 in 2.8 mi ENE 5.8 mph - N/A   Haze
5:00 AM 91.4 °F 122.4 °F 86.0 °F 84% 29.47 in 2.8 mi ENE 5.8 mph - N/A   Haze
6:00 AM 91.4 °F 117.8 °F 84.2 °F 79% 29.50 in 3.7 mi East 5.8 mph - N/A   Unknown
6:30 AM 93.2 °F 120.9 °F 84.2 °F 75% 29.50 in 3.7 mi East 4.6 mph - N/A   Unknown
7:00 AM 95.0 °F 123.7 °F 84.2 °F 71% 29.50 in 4.3 mi East 5.8 mph - N/A   Unknown
7:30 AM 95.0 °F 119.6 °F 82.4 °F 67% 29.53 in 5.0 mi East 6.9 mph - N/A   Unknown
8:00 AM 96.8 °F 121.7 °F 82.4 °F 63% 29.53 in - ESE 6.9 mph - N/A   Clear
8:30 AM 98.6 °F 114.4 °F 77.0 °F 50% 29.53 in - ESE 8.1 mph - N/A   Clear
9:00 AM 100 °F - 78 °F 41% 29.55 in 7 mi East 6.9 mph - -  
9:00 AM 100.4 °F 119.5 °F 78.8 °F 50% 29.53 in - East 6.9 mph - N/A   Clear
10:00 AM 102.2 °F 116.3 °F 75.2 °F 42% 29.53 in - East 9.2 mph - N/A   Clear
11:00 AM 102.2 °F 116.3 °F 75.2 °F 42% 29.53 in - East 8.1 mph - N/A   Clear
12:00 PM 104.0 °F 116.8 °F 73.4 °F 38% - - East 5.8 mph - N/A   Clear
1:00 PM 105.8 °F 111.5 °F 66.2 °F 28% 29.53 in - East 8.1 mph - N/A   Clear
2:00 PM 105.8 °F 113.2 °F 68.0 °F 30% 29.50 in - East 8.1 mph - N/A   Clear
3:00 PM 102 °F - 76 °F 35% 29.51 in 9 mi NE 12.7 mph - -  
3:00 PM 102.2 °F 119.3 °F 77.0 °F 45% 29.50 in - NE 12.7 mph - N/A   Clear
4:00 PM 100.4 °F 119.5 °F 78.8 °F 50% 29.50 in - NE 12.7 mph - N/A   Clear
5:00 PM 98.6 °F 124.6 °F 82.4 °F 60% 29.47 in - ENE 9.2 mph - N/A   Clear
6:00 PM 96.8 °F 126.0 °F 84.2 °F 67% 17.66 in - ENE 8.1 mph - N/A   Clear
7:00 PM 95.0 °F 123.7 °F 84.2 °F 71% 29.50 in - NE 9.2 mph - N/A   Unknown
8:00 PM - - - N/A% 17.69 in - NE 9.2 mph - N/A   Clear
9:00 PM 93 °F - 86 °F 74% 29.55 in 6 mi NNE 8.1 mph - -   Clear
9:00 PM 93.2 °F 124.9 °F 86.0 °F 79% 29.53 in - NNE 8.1 mph - N/A   Clear
10:00 PM 93.2 °F 124.9 °F 86.0 °F 79% 29.53 in - NNE 6.9 mph - N/A   Clear
11:00 PM 91.4 °F 122.4 °F 86.0 °F 84% 29.50 in - NNE 5.8 mph - N/A   Clear